Starlink 11414

operational
NORAD ID: 61948 Int'l Des: 2024-209 Owner: SPXS Country: US Constellation: starlink
LEOCIRCULAR

关于 Starlink 11414

正在加载描述...

实时位置

正在加载3D地球...

即将过境

高度历史

Altitude vs Time

uPlot chart will show altitude changes over time

两行轨道根数

1 61948U 24209K 25258.42997038 .00602357 00000-0 45826-2 0 9999
2 61948 53.1573 155.0608 0001546 51.1318 308.9838 15.69932881 49198
Epoch: Sep 15, 2025 • Age: 14 hours

当前状态

高度 362.4 km
速度 7.70 km/s
星下点 49.83°N, 92.9°W
发射日期 Nov 14, 2024
运行时间 0.8 years
类型 internet

技术详情

分类 Payload
质量 960.00 kg
干质量 910.00 kg
总质量 960.00 kg
长度 0.30 m
直径 4.10 m
跨度 29.00 m
形状 Box + pan
制造商 SPXS
平台类型 Starlink V2MD
阶段状态 In Orbit
所有者/国家 SPXS/US

大型星座

Loading constellations...